EW3591 Weather Reports


time (UTC)temp
F
wind
direction
speed
knots
gust
knots
rain 1hr
in
rain 24hr
in
rain mn
in
humidity
%
barometer
mb
20260507031635 38 0 0.0 0.0 0.00 0.23 0.23 83 1012.6
20260507031434 39 0 0.0 0.0 0.00 0.23 0.23 83 1012.6
20260507031234 39 0 0.0 0.0 0.00 0.23 0.23 83 1012.6
20260507031034 39 0 0.0 0.0 0.00 0.23 0.23 83 1012.7
20260507030833 39 0 0.0 0.0 0.00 0.23 0.23 83 1012.7
20260507030633 39 0 0.0 0.0 0.00 0.23 0.23 83 1012.7
20260507030433 39 0 0.0 0.0 0.00 0.23 0.23 83 1012.7
20260507030232 39 0 0.0 0.0 0.00 0.23 0.23 83 1012.7
20260507030032 39 0 0.0 0.0 0.00 0.23 0.23 82 1012.7
20260507025832 39 0 0.0 0.0 0.00 0.24 0.23 82 1012.7
20260507025632 39 0 0.0 0.0 0.00 0.24 0.23 82 1012.7
20260507025431 39 0 0.0 0.0 0.00 0.24 0.23 82 1012.7
20260507025231 39 0 0.0 0.0 0.00 0.24 0.23 81 1012.6
20260507025031 39 0 0.0 0.0 0.00 0.24 0.23 81 1012.6
20260507024830 39 0 0.0 0.0 0.00 0.24 0.23 81 1012.6
20260507024630 39 0 0.0 0.0 0.00 0.24 0.23 81 1012.5
20260507024430 39 0 0.0 0.0 0.00 0.24 0.23 80 1012.5
20260507024229 39 0 0.0 0.0 0.00 0.24 0.23 79 1012.4
20260507024030 39 0 0.0 0.0 0.00 0.24 0.23 78 1012.5
20260507023829 40 0 0.0 0.0 0.00 0.24 0.23 78 1012.5
20260507023629 40 0 0.0 0.0 0.00 0.24 0.23 78 1012.4
20260507023428 40 0 0.0 0.0 0.00 0.24 0.23 77 1012.4
20260507023228 40 0 0.0 0.0 0.00 0.24 0.23 77 1012.3
20260507023028 40 0 0.0 0.0 0.00 0.24 0.23 77 1012.4
20260507022827 40 0 0.0 0.0 0.00 0.24 0.23 76 1012.4
20260507022627 40 0 0.0 0.0 0.00 0.24 0.23 76 1012.3
20260507022427 40 0 0.0 0.0 0.00 0.24 0.23 76 1012.3
20260507022226 40 0 0.0 0.0 0.00 0.24 0.23 76 1012.3
20260507022026 40 0 0.0 0.0 0.00 0.24 0.23 75 1012.3
20260507021826 40 0 0.0 0.0 0.00 0.24 0.23 75 1012.3
20260507021626 40 0 0.0 0.0 0.00 0.24 0.23 75 1012.2
20260507021425 40 0 0.0 0.0 0.00 0.24 0.23 75 1012.2
20260507021225 40 0 0.0 0.0 0.00 0.24 0.23 74 1012.2
20260507021025 40 0 0.0 0.0 0.00 0.24 0.23 74 1012.3
20260507020824 41 0 0.0 0.0 0.00 0.24 0.23 73 1012.3
20260507020624 41 0 0.0 0.0 0.00 0.24 0.23 72 1012.3
20260507020424 41 0 0.0 0.0 0.00 0.24 0.23 72 1012.3
20260507020223 41 0 0.0 0.0 0.00 0.24 0.23 72 1012.3
20260507020023 42 0 0.0 0.0 0.00 0.24 0.23 71 1012.3
20260507015823 42 0 0.0 0.0 0.00 0.25 0.23 71 1012.3
20260507015623 42 0 0.0 0.0 0.00 0.25 0.23 71 1012.5
20260507015422 42 0 0.0 0.0 0.00 0.25 0.23 71 1012.5
20260507015222 42 0 0.0 0.0 0.00 0.25 0.23 70 1012.5
20260507015022 42 0 0.0 0.0 0.00 0.25 0.23 70 1012.5
20260507014821 43 0 0.0 0.0 0.00 0.25 0.23 69 1012.5
20260507014621 43 0 0.0 0.0 0.00 0.25 0.23 68 1012.5
20260507014421 43 0 0.0 0.0 0.00 0.25 0.23 68 1012.6
20260507014220 43 0 0.0 0.0 0.00 0.25 0.23 67 1012.6
20260507014020 43 0 0.0 0.0 0.00 0.25 0.23 67 1012.6
20260507013820 44 0 0.0 0.9 0.00 0.25 0.23 66 1012.7
20260507013620 44 0 0.0 1.7 0.00 0.25 0.23 66 1012.7
20260507013419 44 0 0.0 1.7 0.00 0.25 0.23 66 1012.7
20260507013219 44 0 0.0 1.7 0.00 0.25 0.23 66 1012.8
20260507013019 44 112 0.0 1.7 0.00 0.25 0.23 66 1012.8
20260507012818 44 112 0.0 1.7 0.00 0.25 0.23 65 1012.8
20260507012618 44 0 0.0 0.0 0.00 0.25 0.23 64 1012.8
20260507012418 44 0 0.0 1.7 0.00 0.25 0.23 64 1012.8
20260507012217 45 0 0.0 1.7 0.00 0.25 0.23 64 1012.7
20260507012017 45 0 0.0 1.7 0.00 0.25 0.23 64 1012.7
20260507011817 45 112 0.0 1.7 0.00 0.25 0.23 64 1012.6
20260507011616 45 112 0.0 1.7 0.00 0.25 0.23 63 1012.6
20260507011416 45 0 0.0 1.7 0.00 0.25 0.23 63 1012.5
20260507011216 45 112 0.0 1.7 0.00 0.25 0.23 63 1012.5
20260507011016 45 112 0.0 0.9 0.00 0.25 0.23 62 1012.5
20260507010815 45 0 0.0 1.7 0.00 0.25 0.23 62 1012.5
20260507010615 45 0 0.0 1.7 0.00 0.25 0.23 62 1012.5
20260507010415 45 0 0.0 1.7 0.00 0.25 0.23 62 1012.4
20260507010214 45 112 0.0 1.7 0.00 0.25 0.23 61 1012.3
20260507010014 46 112 0.0 1.7 0.00 0.25 0.23 61 1012.4
20260507005814 46 112 0.0 1.7 0.00 0.27 0.23 61 1012.4
20260507005613 46 112 0.0 1.7 0.00 0.27 0.23 60 1012.3
20260507005413 46 0 0.0 1.7 0.00 0.27 0.23 60 1012.3
20260507005213 46 112 0.0 2.6 0.00 0.27 0.23 59 1012.3
20260507005013 46 112 0.0 2.6 0.00 0.27 0.23 59 1012.2
20260507004812 46 112 0.0 2.6 0.00 0.27 0.23 59 1012.2
20260507004612 46 112 0.0 2.6 0.00 0.27 0.23 59 1012.3
20260507004412 46 112 0.0 2.6 0.00 0.27 0.23 58 1012.3
20260507004211 46 33 0.9 2.6 0.00 0.27 0.23 58 1012.2
20260507004011 46 17 0.0 1.7 0.00 0.27 0.23 58 1012.2
20260507003811 46 15 0.0 1.7 0.00 0.27 0.23 58 1012.2
20260507003611 46 25 0.0 2.6 0.00 0.27 0.23 58 1012.2
20260507003410 47 89 0.0 3.5 0.00 0.27 0.23 58 1012.1
20260507003210 47 51 0.0 3.5 0.00 0.27 0.23 57 1012.1
20260507003010 47 44 0.0 5.2 0.00 0.27 0.23 57 1012.1
20260507002809 47 36 0.9 5.2 0.00 0.27 0.23 57 1012.1
20260507002609 47 340 0.0 5.2 0.00 0.27 0.23 57 1012.0
20260507002409 47 358 0.9 5.2 0.00 0.27 0.23 57 1011.9
20260507002208 47 62 0.9 5.2 0.00 0.27 0.23 57 1011.9
20260507002008 47 87 0.9 5.2 0.00 0.27 0.23 57 1011.9
20260507001808 47 17 0.9 5.2 0.00 0.27 0.23 57 1011.8
20260507001607 47 136 0.9 6.1 0.00 0.27 0.23 56 1011.8
20260507001407 48 107 0.9 6.1 0.00 0.27 0.23 57 1011.9
20260507001207 48 104 1.7 6.1 0.00 0.27 0.23 56 1011.8
20260507001007 48 35 1.7 6.1 0.00 0.27 0.23 56 1011.8
20260507000806 48 31 1.7 6.1 0.00 0.27 0.23 56 1011.8
20260507000606 48 348 0.9 4.3 0.00 0.27 0.23 57 1011.8
20260507000406 48 51 0.9 4.3 0.00 0.27 0.23 57 1011.8
20260507000205 48 67 0.9 4.3 0.00 0.27 0.23 57 1011.8
20260507000005 48 23 0.9 4.3 0.00 0.27 0.23 57 1011.8
20260506235805 48 20 0.9 6.1 0.00 0.27 0.23 57 1011.8
20260506235604 48 31 0.9 6.1 0.00 0.27 0.23 57 1011.8
20260506235404 48 55 1.7 6.1 0.00 0.27 0.23 56 1011.8
20260506235204 48 59 1.7 7.8 0.00 0.27 0.23 56 1011.7
20260506235004 48 315 0.9 7.8 0.00 0.27 0.23 56 1011.7
20260506234803 48 41 0.9 7.8 0.00 0.27 0.23 57 1011.7
20260506234603 49 40 1.7 7.8 0.00 0.27 0.23 56 1011.7
20260506234403 49 48 1.7 7.8 0.00 0.27 0.23 56 1011.6
20260506234202 49 5 1.7 6.1 0.00 0.27 0.23 56 1011.7
20260506234002 49 27 1.7 6.1 0.00 0.27 0.23 57 1011.7
20260506233802 49 60 1.7 6.1 0.00 0.27 0.23 57 1011.7
20260506233601 49 105 0.9 4.3 0.00 0.27 0.23 57 1011.6
20260506233401 49 206 0.9 7.0 0.00 0.27 0.23 57 1011.6
20260506233201 49 353 1.7 7.0 0.00 0.27 0.23 57 1011.5
20260506233001 49 29 1.7 7.0 0.00 0.27 0.23 56 1011.5
20260506232800 49 69 2.6 7.0 0.00 0.27 0.23 56 1011.5
20260506232600 49 82 1.7 7.0 0.00 0.27 0.23 55 1011.5
20260506232400 50 68 1.7 6.1 0.00 0.27 0.23 56 1011.5
20260506232159 50 73 2.6 6.1 0.00 0.27 0.23 55 1011.5
20260506231959 50 14 1.7 6.1 0.00 0.27 0.23 55 1011.5
20260506231759 50 3 1.7 6.1 0.00 0.27 0.23 55 1011.5
20260506231558 50 52 1.7 6.1 0.00 0.27 0.23 55 1011.5
20260506231358 50 93 1.7 6.1 0.00 0.27 0.23 55 1011.4
20260506231158 51 149 0.9 5.2 0.00 0.27 0.23 56 1011.5
20260506230958 51 68 0.9 5.2 0.00 0.27 0.23 56 1011.4
20260506230757 51 60 0.9 5.2 0.00 0.27 0.23 57 1011.4
20260506230557 51 62 1.7 7.0 0.00 0.27 0.23 57 1011.3
20260506230357 51 32 1.7 7.0 0.00 0.27 0.23 57 1011.4
20260506230156 51 70 2.6 7.0 0.00 0.27 0.23 57 1011.4
20260506225956 50 327 3.5 7.0 0.00 0.29 0.23 58 1011.4
20260506225756 50 211 2.6 7.0 0.00 0.29 0.23 57 1011.4
20260506225555 50 81 1.7 6.1 0.00 0.29 0.23 58 1011.4
20260506225355 50 159 2.6 5.2 0.00 0.29 0.23 58 1011.4
20260506225155 50 179 1.7 5.2 0.00 0.29 0.23 61 1011.3
20260506224955 50 37 0.9 4.3 0.00 0.29 0.23 68 1011.4
20260506224754 50 34 0.0 2.6 0.00 0.29 0.23 68 1011.4
20260506224554 50 34 0.0 3.5 0.00 0.29 0.23 68 1011.4
20260506224354 50 19 0.9 3.5 0.00 0.29 0.23 68 1011.4
20260506224153 50 6 0.9 3.5 0.00 0.29 0.23 69 1011.4
20260506223953 50 8 0.0 3.5 0.00 0.29 0.23 69 1011.3
20260506223753 50 34 1.7 3.5 0.00 0.29 0.23 68 1011.3
20260506223552 50 35 0.9 3.5 0.00 0.29 0.23 68 1011.3
20260506223352 50 31 0.9 3.5 0.00 0.29 0.23 69 1011.2
20260506223152 50 31 0.0 3.5 0.00 0.29 0.23 69 1011.1
20260506222952 49 46 0.9 3.5 0.00 0.29 0.23 69 1011.2
20260506222751 49 81 0.0 3.5 0.00 0.29 0.23 70 1011.1
20260506222551 49 81 0.0 3.5 0.00 0.29 0.23 69 1011.0
20260506222351 49 78 0.9 3.5 0.00 0.29 0.23 69 1011.1
20260506222150 50 60 0.9 4.3 0.00 0.29 0.23 68 1011.1
20260506221950 50 52 0.0 4.3 0.00 0.29 0.23 68 1011.0
20260506221750 50 52 0.9 4.3 0.00 0.29 0.23 69 1011.0
20260506221549 50 39 0.9 4.3 0.00 0.29 0.23 68 1011.1
20260506221349 50 78 0.0 4.3 0.00 0.29 0.23 70 1011.0
20260506221149 50 44 0.0 2.6 0.00 0.29 0.23 69 1010.9
20260506220949 50 9 0.0 2.6 0.00 0.29 0.23 69 1010.9
20260506220748 50 41 0.0 2.6 0.00 0.29 0.23 69 1010.9
20260506220548 50 54 0.9 3.5 0.00 0.29 0.23 68 1010.9
20260506220348 50 33 0.0 4.3 0.00 0.29 0.23 70 1010.9
20260506220147 50 331 0.0 4.3 0.00 0.29 0.23 71 1010.8
20260506215947 50 48 0.0 4.3 0.00 0.33 0.23 70 1010.8
20260506215747 50 59 0.9 4.3 0.00 0.33 0.23 70 1010.8
20260506215546 49 16 0.9 4.3 0.00 0.33 0.23 70 1010.7
20260506215346 50 299 0.9 2.6 0.00 0.33 0.23 70 1010.6
20260506215146 50 316 0.9 2.6 0.00 0.33 0.23 70 1010.6
20260506214946 50 337 0.9 2.6 0.00 0.33 0.23 70 1010.5
20260506214745 50 295 0.9 2.6 0.00 0.33 0.23 70 1010.5
20260506214545 50 309 0.0 2.6 0.00 0.33 0.23 70 1010.5
20260506214345 50 357 0.9 2.6 0.00 0.33 0.23 70 1010.4
20260506214144 50 39 0.9 3.5 0.00 0.33 0.23 70 1010.4
20260506213944 50 355 0.9 3.5 0.00 0.33 0.23 70 1010.5
20260506213744 50 330 0.0 3.5 0.00 0.33 0.23 70 1010.4
20260506213543 50 4 0.9 4.3 0.00 0.33 0.23 70 1010.4
20260506213343 50 21 0.9 4.3 0.00 0.33 0.23 70 1010.4
20260506213143 50 32 0.9 4.3 0.00 0.33 0.23 70 1010.3
20260506212943 50 43 0.9 4.3 0.00 0.33 0.23 71 1010.3
20260506212742 50 42 1.7 4.3 0.00 0.33 0.23 71 1010.2
20260506212542 50 352 0.9 3.5 0.00 0.33 0.23 71 1010.3
20260506212342 49 335 0.9 3.5 0.00 0.33 0.23 71 1010.3
20260506212141 49 327 0.9 3.5 0.00 0.33 0.23 71 1010.2
20260506211941 49 358 1.7 3.5 0.00 0.33 0.23 70 1010.3
20260506211741 50 344 0.9 3.5 0.00 0.33 0.23 70 1010.3
20260506211540 50 12 0.9 2.6 0.00 0.33 0.23 71 1010.3
20260506211340 50 335 0.0 3.5 0.00 0.33 0.23 71 1010.2
20260506211140 50 294 0.0 4.3 0.00 0.33 0.23 71 1010.2
20260506210940 49 325 0.0 4.3 0.00 0.33 0.23 70 1010.2
20260506210739 50 45 0.9 4.3 0.00 0.33 0.23 70 1010.3
20260506210539 50 52 0.9 4.3 0.00 0.33 0.23 70 1010.2
20260506210339 50 310 0.9 6.1 0.00 0.33 0.23 70 1010.2
20260506210138 50 358 0.9 7.0 0.00 0.33 0.23 71 1010.1
20260506205938 50 354 1.7 7.0 0.00 0.36 0.23 70 1010.0
20260506205738 50 6 0.9 7.0 0.00 0.36 0.23 69 1010.0
20260506205537 50 355 0.9 7.0 0.00 0.36 0.23 69 1010.1
20260506205337 51 27 0.9 7.0 0.00 0.36 0.23 70 1010.0
20260506205137 50 24 0.0 3.5 0.00 0.36 0.23 70 1010.0
20260506204936 50 356 0.0 3.5 0.00 0.36 0.23 70 1010.0
20260506204736 50 1 0.9 3.5 0.00 0.36 0.23 70 1009.9
20260506204536 50 47 0.9 4.3 0.00 0.36 0.23 70 1010.0
20260506204336 50 53 0.9 4.3 0.00 0.36 0.23 69 1009.9
20260506204135 50 347 0.9 4.3 0.00 0.36 0.23 69 1010.0
20260506203935 51 26 1.7 4.3 0.00 0.36 0.23 68 1010.0
20260506203735 51 25 0.9 4.3 0.00 0.36 0.23 69 1010.0
20260506203534 51 266 0.0 4.3 0.00 0.36 0.23 70 1010.0
20260506203334 50 275 0.9 3.5 0.00 0.36 0.23 71 1010.0
20260506203134 50 327 0.9 3.5 0.00 0.36 0.23 71 1010.1
20260506202933 50 11 0.9 3.5 0.00 0.36 0.23 72 1010.1
20260506202733 50 16 0.9 4.3 0.00 0.36 0.23 71 1010.2
20260506202533 50 5 0.9 4.3 0.00 0.36 0.23 70 1010.1
20260506202333 49 354 0.9 4.3 0.00 0.36 0.23 71 1010.1
20260506202132 49 24 0.9 4.3 0.00 0.36 0.23 72 1010.1
20260506201932 49 56 1.7 4.3 0.00 0.36 0.23 70 1010.1
20260506201732 49 13 1.7 4.3 0.00 0.36 0.23 72 1010.0
20260506201531 49 15 1.7 5.2 0.00 0.36 0.23 72 1010.1
20260506201331 49 18 2.6 6.1 0.00 0.36 0.23 72 1010.2
20260506201131 49 356 1.7 6.1 0.00 0.36 0.23 73 1010.2
20260506200930 49 342 0.9 6.1 0.00 0.36 0.23 74 1010.2
20260506200730 48 28 1.7 7.8 0.00 0.36 0.23 73 1010.2
20260506200530 48 21 0.9 7.8 0.00 0.36 0.23 73 1010.3
20260506200330 48 11 1.7 7.8 0.00 0.36 0.23 73 1010.3
20260506200129 48 20 2.6 7.8 0.00 0.36 0.23 72 1010.3
20260506195929 48 41 3.5 7.8 0.00 0.37 0.23 72 1010.4
20260506195729 48 29 1.7 7.8 0.00 0.37 0.23 72 1010.4
20260506195528 48 50 0.9 7.0 0.00 0.37 0.23 73 1010.4
20260506195328 48 27 1.7 7.0 0.00 0.37 0.23 73 1010.4
20260506195128 48 24 2.6 7.0 0.00 0.37 0.23 72 1010.5
20260506194927 48 2 1.7 7.0 0.00 0.37 0.23 73 1010.5
20260506194727 48 29 2.6 7.0 0.00 0.37 0.23 73 1010.5
20260506194527 48 47 1.7 7.0 0.00 0.37 0.23 72 1010.5
20260506194327 48 23 0.9 7.0 0.00 0.37 0.23 73 1010.4
20260506194126 48 23 2.6 7.0 0.00 0.37 0.23 74 1010.5
20260506193926 48 43 2.6 7.0 0.00 0.37 0.23 73 1010.4
20260506193726 48 39 2.6 7.0 0.00 0.37 0.23 73 1010.4
20260506193525 48 46 2.6 7.8 0.00 0.37 0.23 73 1010.5
20260506193325 48 12 1.7 8.7 0.00 0.37 0.23 73 1010.4
20260506193125 48 7 1.7 8.7 0.00 0.37 0.23 73 1010.5
20260506192924 48 16 2.6 8.7 0.00 0.37 0.23 73 1010.5
20260506192724 48 18 2.6 8.7 0.00 0.37 0.23 73 1010.4
20260506192524 48 34 2.6 7.8 0.00 0.37 0.23 74 1010.5
20260506192324 48 53 3.5 8.7 0.00 0.37 0.23 73 1010.4
20260506192123 48 54 3.5 8.7 0.00 0.37 0.23 73 1010.4
20260506191923 48 43 3.5 8.7 0.00 0.37 0.23 75 1010.3
20260506191723 47 42 3.5 8.7 0.00 0.37 0.23 74 1010.4
20260506191522 47 37 2.6 9.6 0.00 0.37 0.23 76 1010.3
20260506191322 47 42 3.5 9.6 0.00 0.37 0.23 74 1010.3
20260506191122 47 38 4.3 9.6 0.00 0.37 0.23 75 1010.3
20260506190921 47 44 5.2 9.6 0.00 0.37 0.23 75 1010.2
20260506190721 47 63 4.3 9.6 0.00 0.37 0.23 75 1010.2
20260506190521 47 47 3.5 9.6 0.00 0.37 0.23 76 1010.2
20260506190321 47 32 4.3 9.6 0.00 0.37 0.23 75 1010.2
20260506190120 47 31 4.3 10.4 0.00 0.37 0.23 75 1010.2
20260506185920 47 32 2.6 10.4 0.00 0.37 0.23 75 1010.1
20260506185720 47 30 3.5 10.4 0.00 0.37 0.23 76 1010.1
20260506185519 47 23 3.5 10.4 0.00 0.37 0.23 76 1010.1
20260506185319 47 46 2.6 10.4 0.00 0.37 0.23 77 1010.1
20260506185119 47 32 1.7 10.4 0.00 0.37 0.23 78 1010.0
20260506184918 47 17 3.5 10.4 0.00 0.37 0.23 77 1010.0
20260506184718 47 27 4.3 10.4 0.00 0.37 0.23 77 1010.0
20260506184518 47 26 4.3 10.4 0.00 0.37 0.23 77 1010.0
20260506184318 47 41 3.5 10.4 0.00 0.37 0.23 79 1009.9
20260506184117 47 31 4.3 10.4 0.00 0.37 0.23 80 1009.8
20260506183917 47 28 3.5 16.5 0.00 0.37 0.23 81 1009.8
20260506183717 47 23 3.5 16.5 0.00 0.37 0.23 82 1009.8
20260506183516 46 19 4.3 16.5 0.00 0.37 0.23 81 1009.8
20260506183316 46 20 6.1 16.5 0.00 0.37 0.23 81 1009.8
20260506183116 46 27 6.1 16.5 0.00 0.37 0.23 82 1009.9
20260506182915 46 23 5.2 12.2 0.00 0.37 0.23 83 1009.9
20260506182715 46 39 5.2 12.2 0.00 0.37 0.23 85 1009.9
20260506182515 46 39 4.3 10.4 0.00 0.37 0.23 88 1009.9
20260506182315 46 25 5.2 13.0 0.00 0.37 0.23 89 1009.9
20260506182114 46 30 4.3 13.0 0.00 0.37 0.23 89 1009.9
20260506181914 46 43 4.3 13.0 0.00 0.37 0.23 91 1009.9
20260506181714 46 35 5.2 13.0 0.00 0.37 0.23 90 1009.9
20260506181513 46 27 5.2 13.0 0.00 0.37 0.23 91 1009.8
20260506181313 46 25 5.2 12.2 0.00 0.37 0.23 91 1009.8
20260506181113 46 33 4.3 10.4 0.00 0.37 0.23 91 1009.8
20260506180912 47 23 4.3 10.4 0.00 0.37 0.23 90 1009.9
20260506180712 47 31 4.3 10.4 0.00 0.37 0.23 90 1009.8
20260506180512 48 38 3.5 9.6 0.00 0.37 0.23 90 1009.7
20260506180312 48 38 0.9 7.8 0.00 0.37 0.23 90 1009.7
20260506180111 48 30 1.7 8.7 0.00 0.37 0.23 90 1009.7
20260506175911 48 2 2.6 8.7 0.00 0.37 0.23 89 1009.5
20260506175711 48 27 3.5 10.4 0.00 0.37 0.23 89 1009.3
20260506175510 48 23 3.5 10.4 0.00 0.37 0.23 89 1009.3
20260506175310 49 360 3.5 14.8 0.00 0.37 0.23 88 1009.3
20260506175110 49 7 4.3 14.8 0.00 0.37 0.23 88 1009.3
20260506174909 50 12 4.3 14.8 0.00 0.37 0.23 87 1009.2
20260506174709 50 13 5.2 14.8 0.00 0.37 0.23 86 1009.1
20260506174509 51 18 5.2 14.8 0.00 0.37 0.23 85 1009.0
20260506174309 52 19 5.2 14.8 0.00 0.37 0.23 83 1008.8
20260506174108 53 110 6.1 13.9 0.00 0.37 0.23 81 1008.8
20260506173908 55 155 5.2 13.9 0.00 0.37 0.23 78 1009.0
20260506173708 56 271 0.9 12.2 0.00 0.37 0.23 80 1009.0
20260506173507 56 261 0.9 3.5 0.00 0.37 0.23 82 1008.5
20260506173307 56 250 0.9 3.5 0.00 0.37 0.23 82 1008.5
20260506173107 56 218 1.7 4.3 0.00 0.37 0.23 80 1008.6
20260506172906 56 48 0.9 4.3 0.00 0.37 0.23 82 1008.7
20260506172706 56 44 0.0 4.3 0.00 0.37 0.23 83 1008.7
20260506172506 56 22 0.9 4.3 0.00 0.37 0.23 83 1008.6
20260506172307 56 317 0.9 4.3 0.00 0.37 0.23 84 1008.6
20260506172105 55 350 0.9 3.5 0.00 0.37 0.23 86 1008.7
20260506171905 55 39 0.0 3.5 0.00 0.37 0.23 86 1008.7
20260506171705 54 47 1.7 3.5 0.00 0.37 0.23 86 1008.8
20260506171504 54 35 1.7 3.5 0.00 0.37 0.23 86 1008.9
20260506171304 54 35 0.0 3.5 0.00 0.37 0.23 87 1009.0
20260506171104 53 21 0.9 4.3 0.00 0.37 0.23 88 1009.0
20260506170903 53 20 0.9 4.3 0.00 0.37 0.23 89 1008.9
20260506170703 52 64 0.0 4.3 0.00 0.37 0.23 90 1008.9
20260506170503 52 53 0.9 4.3 0.00 0.37 0.23 89 1008.8
20260506170302 52 9 0.9 2.6 0.00 0.37 0.23 90 1008.8
20260506165902 51 49 0.0 2.6 0.00 0.37 0.23 90 1008.8
20260506165702 51 76 0.0 2.6 0.00 0.37 0.23 90 1008.8
20260506165501 50 46 0.9 2.6 0.00 0.37 0.23 91 1008.9
20260506165301 50 27 0.0 3.5 0.00 0.37 0.23 91 1008.9
20260506165101 50 27 0.0 3.5 0.00 0.37 0.23 92 1009.0
20260506164900 50 27 0.9 3.5 0.00 0.37 0.23 92 1009.0
20260506164700 50 19 0.9 3.5 0.00 0.37 0.23 91 1009.1
20260506164500 50 14 0.9 3.5 0.00 0.37 0.23 91 1009.1
20260506164259 50 14 0.9 3.5 0.00 0.37 0.23 91 1009.1
20260506164100 50 56 1.7 3.5 0.00 0.37 0.23 91 1009.1
20260506163859 50 79 0.9 3.5 0.00 0.37 0.23 90 1009.0
20260506163659 50 34 0.0 3.5 0.00 0.37 0.23 90 1009.0
20260506163458 50 34 0.9 3.5 0.00 0.37 0.23 90 1009.1
20260506163258 50 34 0.9 3.5 0.00 0.37 0.23 90 1009.1
20260506163058 50 34 0.0 4.3 0.00 0.37 0.23 91 1009.1
20260506162857 50 52 0.9 4.3 0.00 0.37 0.23 90 1009.1
20260506162657 50 44 0.9 4.3 0.00 0.37 0.23 90 1009.0
20260506162457 50 24 1.7 4.3 0.00 0.37 0.23 90 1009.1
20260506162256 51 45 0.9 4.3 0.00 0.37 0.23 90 1009.0
20260506162056 51 46 0.0 4.3 0.00 0.37 0.23 90 1009.0
20260506161856 51 45 0.0 4.3 0.00 0.37 0.23 90 1009.1
20260506161656 51 42 0.9 4.3 0.00 0.37 0.23 90 1009.1
20260506161455 51 31 0.9 4.3 0.00 0.37 0.23 90 1009.0
20260506161255 51 31 1.7 4.3 0.00 0.37 0.23 90 1009.0
20260506161055 51 28 1.7 4.3 0.00 0.37 0.23 89 1009.0
20260506160854 51 28 0.9 4.3 0.00 0.37 0.23 89 1009.0
20260506160654 51 14 1.7 4.3 0.00 0.37 0.23 89 1009.1
20260506160454 52 6 1.7 4.3 0.00 0.37 0.23 89 1009.0
20260506160253 52 2 0.9 4.3 0.00 0.37 0.23 90 1008.9
20260506160053 52 1 0.9 3.5 0.00 0.37 0.23 90 1008.9
20260506155853 51 1 0.9 3.5 0.00 0.37 0.23 90 1008.9
20260506155653 51 1 0.9 3.5 0.00 0.37 0.23 91 1008.9
20260506155452 51 1 0.9 3.5 0.00 0.37 0.23 91 1009.0
20260506155252 51 1 0.9 3.5 0.00 0.37 0.23 91 1009.0
20260506155052 51 1 0.9 3.5 0.00 0.37 0.23 92 1009.0
20260506154851 50 2 0.9 3.5 0.00 0.37 0.23 92 1009.0
20260506154651 50 37 0.9 4.3 0.00 0.37 0.23 93 1009.2
20260506154451 50 46 1.7 4.3 0.00 0.37 0.23 92 1009.1
20260506154250 50 39 0.9 4.3 0.00 0.37 0.23 92 1009.1
20260506154050 50 35 1.7 4.3 0.00 0.37 0.23 92 1009.2
20260506153850 50 38 0.9 4.3 0.00 0.37 0.23 93 1009.3
20260506153650 50 39 0.0 3.5 0.00 0.37 0.23 93 1009.3
20260506153449 50 39 0.0 4.3 0.00 0.37 0.23 94 1009.2
20260506153249 50 39 0.9 4.3 0.00 0.37 0.23 94 1009.2
20260506153049 49 36 0.9 4.3 0.00 0.37 0.23 94 1009.2
20260506152848 49 35 0.9 4.3 0.00 0.37 0.23 94 1009.2
20260506152648 49 45 0.9 4.3 0.00 0.37 0.23 94 1009.1
20260506152448 49 353 0.0 3.5 0.00 0.37 0.23 94 1009.0
20260506152247 49 353 0.9 3.5 0.00 0.37 0.23 94 1009.1
20260506152047 49 353 1.7 3.5 0.00 0.37 0.23 94 1009.1
20260506151847 49 352 0.9 3.5 0.00 0.37 0.23 95 1009.1
20260506151647 49 352 0.9 3.5 0.00 0.37 0.23 96 1009.0
20260506151446 49 352 0.9 3.5 0.00 0.37 0.23 96 1009.0
20260506151246 49 352 0.0 3.5 0.00 0.37 0.23 97 1009.0
20260506151046 49 360 0.0 3.5 0.00 0.37 0.23 97 1008.9
20260506150845 48 35 0.9 3.5 0.00 0.37 0.23 98 1008.9
20260506150645 48 348 0.9 2.6 0.00 0.37 0.23 98 1009.0
20260506150445 48 21 0.0 2.6 0.00 0.37 0.23 98 1008.9
20260506150244 48 0 0.0 1.7 0.00 0.37 0.23 98 1008.9
20260506150044 47 0 0.0 1.7 0.00 0.37 0.23 98 1008.8
20260506145844 47 0 0.0 1.7 0.00 0.37 0.23 98 1008.9
20260506145644 47 0 0.0 1.7 0.00 0.37 0.23 98 1008.9
20260506145443 47 98 0.0 1.7 0.00 0.37 0.23 98 1008.8
20260506145243 47 98 0.0 3.5 0.00 0.37 0.23 98 1008.8
20260506145043 47 98 0.9 3.5 0.00 0.37 0.23 98 1008.8
20260506144842 46 97 0.0 3.5 0.00 0.37 0.23 98 1008.7
20260506144642 46 86 0.9 3.5 0.00 0.37 0.23 98 1008.7
20260506144442 46 64 0.9 3.5 0.00 0.37 0.23 98 1008.7
20260506144241 46 55 0.0 2.6 0.00 0.37 0.23 98 1008.6
20260506144041 46 55 0.9 3.5 0.00 0.37 0.23 98 1008.6
20260506143841 46 55 0.9 3.5 0.00 0.37 0.23 98 1008.7
20260506143641 46 57 0.9 3.5 0.00 0.37 0.23 98 1008.7
20260506143440 46 60 0.9 3.5 0.00 0.37 0.23 98 1008.7
20260506143240 46 60 0.0 3.5 0.00 0.37 0.23 98 1008.7
20260506143040 46 0 0.0 0.0 0.00 0.37 0.23 98 1008.7
20260506142839 46 0 0.0 1.7 0.00 0.37 0.23 98 1008.7
20260506142639 46 0 0.0 1.7 0.00 0.37 0.23 98 1008.7
20260506142439 46 0 0.0 1.7 0.00 0.37 0.23 98 1008.7
20260506142238 46 60 0.0 1.7 0.00 0.37 0.23 98 1008.7
20260506142038 46 60 0.0 1.7 0.00 0.37 0.23 98 1008.7
20260506141838 46 60 0.0 1.7 0.00 0.37 0.23 98 1008.7
20260506141638 46 60 0.0 2.6 0.00 0.37 0.23 98 1008.8
20260506141437 46 60 0.0 2.6 0.00 0.37 0.23 98 1008.7
20260506141237 46 60 0.0 2.6 0.00 0.37 0.23 98 1008.7
20260506141037 45 60 0.9 2.6 0.00 0.37 0.23 98 1008.8
20260506140836 45 60 0.9 2.6 0.00 0.37 0.23 98 1008.8
20260506140636 45 60 0.9 2.6 0.00 0.37 0.23 98 1008.8
20260506140436 45 60 0.0 2.6 0.00 0.37 0.23 98 1008.8
20260506140235 45 60 0.9 2.6 0.00 0.37 0.23 98 1008.8
20260506140035 45 60 0.9 2.6 0.00 0.37 0.23 98 1008.9
20260506135835 45 60 0.9 2.6 0.00 0.37 0.23 98 1008.8
20260506135634 45 59 0.9 2.6 0.00 0.37 0.23 98 1008.7
20260506135434 46 58 0.0 1.7 0.00 0.37 0.23 98 1008.7
20260506135234 46 58 0.0 1.7 0.00 0.37 0.23 98 1008.7
20260506135034 45 58 0.0 1.7 0.00 0.37 0.23 98 1008.7
20260506134833 45 58 0.9 1.7 0.00 0.37 0.23 98 1008.6
20260506134633 45 58 0.0 1.7 0.00 0.37 0.23 98 1008.6
20260506134433 45 58 0.0 1.7 0.00 0.37 0.23 98 1008.6
20260506134232 45 58 0.0 1.7 0.00 0.37 0.23 98 1008.6
20260506134032 45 50 0.0 1.7 0.00 0.37 0.23 98 1008.6
20260506133832 45 46 0.0 1.7 0.00 0.37 0.23 98 1008.5
20260506133631 45 47 0.0 1.7 0.00 0.37 0.23 98 1008.5
20260506133431 45 35 0.0 2.6 0.00 0.37 0.23 98 1008.5
20260506133231 45 348 0.9 2.6 0.00 0.37 0.23 98 1008.6
20260506133031 45 341 0.0 2.6 0.00 0.37 0.23 98 1008.6
20260506132830 45 341 0.0 2.6 0.00 0.37 0.23 98 1008.6
20260506132630 45 32 0.0 2.6 0.00 0.37 0.23 98 1008.6
20260506132430 45 45 0.9 2.6 0.00 0.37 0.23 98 1008.5
20260506132229 45 54 0.0 1.7 0.00 0.37 0.23 98 1008.5
20260506132029 45 55 0.9 1.7 0.00 0.37 0.23 98 1008.5
20260506131829 45 39 0.0 2.6 0.00 0.37 0.23 98 1008.4
20260506131628 45 27 0.0 2.6 0.00 0.37 0.23 98 1008.5
20260506131428 45 27 0.9 2.6 0.00 0.37 0.23 98 1008.5
20260506131228 45 27 0.9 2.6 0.00 0.37 0.23 98 1008.5
20260506131028 45 27 0.0 2.6 0.00 0.37 0.23 98 1008.4
20260506130827 45 27 0.0 2.6 0.00 0.37 0.23 98 1008.5
20260506130627 45 27 0.0 2.6 0.00 0.37 0.23 98 1008.5
20260506130427 45 0 0.0 1.7 0.00 0.37 0.23 98 1008.4
20260506130226 45 0 0.0 1.7 0.00 0.37 0.23 98 1008.3
20260506130026 45 27 0.0 1.7 0.00 0.37 0.23 98 1008.4
20260506125826 45 27 0.0 1.7 0.00 0.37 0.23 98 1008.3
20260506125625 45 27 0.0 2.6 0.00 0.37 0.23 98 1008.2
20260506125425 45 27 0.0 2.6 0.00 0.37 0.23 98 1008.3
20260506125225 45 27 0.0 2.6 0.00 0.37 0.23 98 1008.3
20260506125025 45 27 0.0 2.6 0.00 0.37 0.23 98 1008.4
20260506124824 45 27 0.0 2.6 0.00 0.37 0.23 98 1008.5
20260506124624 45 27 0.9 1.7 0.00 0.37 0.23 98 1008.4
20260506124424 45 27 0.9 1.7 0.00 0.37 0.23 98 1008.3
20260506124223 45 28 0.0 1.7 0.00 0.37 0.23 98 1008.5
20260506124023 45 41 0.0 1.7 0.00 0.37 0.23 98 1008.4
20260506123823 45 41 0.0 1.7 0.00 0.37 0.23 98 1008.4
20260506123622 45 41 0.0 1.7 0.00 0.37 0.23 98 1008.4
20260506123422 45 41 0.0 1.7 0.01 0.37 0.23 98 1008.4
20260506123222 45 0 0.0 1.7 0.01 0.37 0.23 98 1008.4
20260506123022 45 0 0.0 1.7 0.01 0.37 0.23 98 1008.4
20260506122821 45 41 0.0 1.7 0.01 0.37 0.23 98 1008.3
20260506122621 45 41 0.0 1.7 0.01 0.37 0.23 98 1008.3
20260506122421 45 41 0.0 1.7 0.01 0.37 0.23 98 1008.2
20260506122220 45 0 0.0 0.0 0.01 0.37 0.23 98 1008.3
20260506122020 45 0 0.0 0.0 0.01 0.37 0.23 98 1008.3
20260506121820 45 0 0.0 0.0 0.01 0.37 0.23 98 1008.3
20260506121619 45 0 0.0 0.0 0.01 0.37 0.23 98 1008.2
20260506121419 45 0 0.0 0.0 0.01 0.37 0.23 98 1008.2
20260506121219 45 0 0.0 1.7 0.01 0.37 0.23 98 1008.1
20260506121019 45 0 0.0 1.7 0.01 0.37 0.23 98 1008.1
20260506120818 45 0 0.0 1.7 0.01 0.37 0.23 98 1008.1
20260506120618 45 42 0.0 1.7 0.01 0.37 0.23 98 1008.1
20260506120418 45 42 0.0 1.7 0.01 0.37 0.23 98 1008.1
20260506120217 45 42 0.0 0.9 0.01 0.37 0.23 98 1007.9
20260506120017 45 0 0.0 0.9 0.01 0.37 0.23 98 1007.9
20260506115817 45 0 0.0 1.7 0.01 0.37 0.23 98 1007.9
20260506115616 45 0 0.0 1.7 0.01 0.37 0.23 98 1007.9
20260506115416 45 0 0.0 1.7 0.01 0.37 0.23 98 1008.0
20260506115216 45 40 0.0 1.7 0.01 0.37 0.23 98 1008.0
20260506115015 45 40 0.0 1.7 0.01 0.37 0.23 98 1008.0
20260506114815 45 40 0.0 1.7 0.01 0.37 0.23 98 1008.0
20260506114615 45 40 0.0 1.7 0.01 0.37 0.23 98 1008.0
20260506114415 45 40 0.0 1.7 0.01 0.37 0.23 98 1008.1
20260506114214 45 40 0.0 1.7 0.01 0.37 0.23 98 1008.2
20260506114014 45 40 0.0 1.7 0.01 0.37 0.23 98 1008.2
20260506113814 45 41 0.0 1.7 0.01 0.37 0.23 98 1008.2
20260506113613 45 0 0.0 0.0 0.01 0.37 0.23 98 1008.1
20260506113413 45 0 0.0 0.0 0.00 0.36 0.22 98 1008.0
20260506113213 45 0 0.0 0.0 0.00 0.36 0.22 98 1008.1
20260506113012 45 0 0.0 0.0 0.00 0.36 0.22 98 1008.0
20260506112812 45 0 0.0 0.0 0.00 0.36 0.22 98 1008.0
20260506112612 45 0 0.0 0.9 0.00 0.36 0.22 98 1008.0
20260506112412 45 0 0.0 1.7 0.00 0.36 0.22 98 1007.9
20260506112211 45 0 0.0 1.7 0.00 0.36 0.22 98 1007.8
20260506112011 45 41 0.0 1.7 0.00 0.36 0.22 98 1007.6
20260506111811 45 40 0.0 1.7 0.00 0.36 0.22 98 1007.6
20260506111610 45 40 0.0 2.6 0.00 0.36 0.22 98 1007.6
20260506111410 45 40 0.0 2.6 0.00 0.36 0.22 98 1007.5
20260506111210 45 40 0.0 2.6 0.00 0.36 0.22 98 1007.5
20260506111009 45 40 0.0 2.6 0.00 0.36 0.22 98 1007.5
20260506110809 45 42 0.0 2.6 0.00 0.36 0.22 98 1007.5
20260506110609 45 49 0.0 1.7 0.00 0.36 0.22 98 1007.4
20260506110409 45 0 0.0 0.9 0.00 0.36 0.22 98 1007.3
20260506110208 45 0 0.0 1.7 0.00 0.36 0.22 98 1007.2
20260506110008 45 0 0.0 1.7 0.00 0.36 0.22 98 1007.1
20260506105808 45 1 0.0 1.7 0.00 0.36 0.22 98 1007.1
20260506105607 44 5 0.0 1.7 0.00 0.36 0.22 98 1007.0
20260506105407 45 9 0.0 1.7 0.00 0.36 0.22 98 1007.0
20260506105207 44 9 0.0 1.7 0.00 0.36 0.22 98 1007.0
20260506105006 44 0 0.0 1.7 0.00 0.36 0.22 98 1007.0
20260506104806 44 6 0.0 1.7 0.00 0.36 0.22 98 1007.1
20260506104606 44 6 0.0 2.6 0.01 0.36 0.22 98 1007.1
20260506104406 44 0 0.0 2.6 0.01 0.36 0.22 98 1007.1
20260506104205 44 24 0.0 2.6 0.01 0.36 0.22 98 1007.0
20260506104005 44 21 0.0 2.6 0.01 0.36 0.22 98 1007.1
20260506103805 44 282 0.0 2.6 0.01 0.36 0.22 98 1007.1
20260506103604 44 282 0.0 1.7 0.01 0.36 0.22 98 1007.2
20260506103404 44 282 0.9 1.7 0.01 0.36 0.22 98 1007.3
20260506103204 44 282 0.0 1.7 0.01 0.36 0.22 98 1007.4
20260506103003 44 283 0.0 1.7 0.02 0.36 0.22 98 1007.3
20260506102803 44 0 0.0 1.7 0.02 0.36 0.22 98 1007.5
20260506102603 44 282 0.0 1.7 0.02 0.36 0.22 98 1007.7
20260506102403 44 282 0.0 1.7 0.02 0.36 0.22 98 1007.6
20260506102202 44 283 0.0 0.9 0.02 0.36 0.22 98 1007.7
20260506102002 44 0 0.0 2.6 0.02 0.36 0.22 98 1007.8
20260506101802 44 0 0.0 2.6 0.02 0.36 0.22 98 1007.8
20260506101237 44 282 0.0 2.6 0.02 0.36 0.22 97 1007.6
20260506101036 44 282 0.0 2.6 0.02 0.36 0.22 97 1007.6
20260506100836 44 282 0.0 0.9 0.02 0.36 0.22 97 1007.6
20260506100636 44 282 0.0 0.9 0.02 0.36 0.22 97 1007.6
20260506100436 44 282 0.0 0.9 0.02 0.36 0.22 97 1007.6
20260506100235 44 0 0.0 1.7 0.02 0.36 0.22 97 1007.2
20260506100035 44 283 0.0 1.7 0.02 0.36 0.22 97 1007.0
20260506095835 44 282 0.0 1.7 0.02 0.36 0.22 97 1006.9
20260506095634 44 283 0.9 2.6 0.02 0.36 0.22 97 1006.9
20260506095434 44 20 0.0 2.6 0.02 0.36 0.22 97 1006.9
20260506095234 44 87 0.0 2.6 0.02 0.36 0.22 97 1007.1
20260506095033 44 0 0.0 2.6 0.02 0.36 0.22 97 1007.2
20260506094833 44 80 0.9 2.6 0.01 0.35 0.21 97 1007.1
20260506094633 44 44 0.0 4.3 0.01 0.35 0.21 97 1007.2
20260506094433 44 13 0.0 4.3 0.01 0.35 0.21 97 1007.2
20260506094232 44 47 0.0 4.3 0.01 0.35 0.21 97 1007.3
20260506094032 45 88 0.9 4.3 0.01 0.35 0.21 97 1007.3
20260506093832 45 82 0.9 4.3 0.01 0.35 0.21 97 1007.3
20260506093631 45 75 0.9 3.5 0.02 0.35 0.21 97 1007.4
20260506093431 45 270 0.0 1.7 0.02 0.35 0.21 97 1007.5
20260506093231 45 265 0.0 1.7 0.02 0.35 0.21 97 1007.7
20260506093030 45 260 0.0 1.7 0.01 0.34 0.20 97 1007.8
20260506092830 45 260 0.0 1.7 0.01 0.34 0.20 97 1007.9
20260506092630 45 260 0.0 1.7 0.01 0.34 0.20 97 1007.8
20260506092430 45 260 0.0 0.9 0.01 0.34 0.20 97 1007.8
20260506092229 45 0 0.0 0.0 0.01 0.34 0.20 97 1007.8
20260506092029 45 0 0.0 0.0 0.01 0.34 0.20 97 1007.9
20260506091829 45 0 0.0 0.0 0.01 0.34 0.20 97 1007.7
20260506091628 45 0 0.0 0.0 0.01 0.34 0.20 97 1007.7
20260506091428 45 0 0.0 0.9 0.01 0.34 0.20 97 1007.7
20260506091228 45 0 0.0 0.9 0.01 0.34 0.20 97 1007.7
20260506091027 45 0 0.0 0.9 0.01 0.34 0.20 97 1007.7
20260506090827 45 260 0.0 0.9 0.02 0.34 0.20 97 1007.6
20260506090627 45 260 0.0 0.9 0.02 0.34 0.20 97 1007.5
20260506090427 45 260 0.0 0.9 0.02 0.34 0.20 97 1007.5
20260506090226 45 0 0.0 0.0 0.02 0.34 0.20 97 1007.6
20260506090026 45 0 0.0 0.0 0.02 0.34 0.20 97 1007.6
20260506085826 45 0 0.0 0.0 0.02 0.34 0.20 97 1007.6
20260506085625 45 0 0.0 1.7 0.02 0.34 0.20 97 1007.5
20260506085425 45 0 0.0 1.7 0.02 0.34 0.20 97 1007.5
20260506085225 45 0 0.0 1.7 0.02 0.34 0.20 97 1007.5
20260506085024 45 260 0.0 1.7 0.03 0.34 0.20 97 1007.6
20260506084824 45 260 0.0 1.7 0.03 0.34 0.20 97 1007.7
20260506084624 45 0 0.0 1.7 0.03 0.34 0.20 97 1007.8
20260506084424 45 0 0.0 1.7 0.03 0.34 0.20 97 1007.8
20260506084223 45 260 0.0 1.7 0.03 0.34 0.20 96 1007.9
20260506084023 45 256 0.0 1.7 0.03 0.34 0.20 96 1007.8
20260506083823 45 253 0.0 1.7 0.03 0.34 0.20 96 1007.9
20260506083622 45 253 0.0 1.7 0.02 0.33 0.19 96 1007.9
20260506083422 45 253 0.0 1.7 0.03 0.33 0.19 96 1007.8
20260506083222 45 253 0.0 1.7 0.03 0.33 0.19 96 1007.8
20260506083021 45 253 0.0 1.7 0.03 0.33 0.19 96 1007.9
20260506082821 45 253 0.0 1.7 0.03 0.33 0.19 96 1007.8
20260506082621 45 253 0.0 1.7 0.03 0.33 0.19 96 1007.9
20260506082420 45 0 0.0 1.7 0.03 0.33 0.19 96 1008.0
20260506082220 45 0 0.0 1.7 0.03 0.33 0.19 96 1007.9
20260506082020 45 252 0.0 1.7 0.03 0.33 0.19 96 1007.9
20260506081820 45 252 0.0 1.7 0.03 0.33 0.19 96 1007.9
20260506081619 45 0 0.0 0.0 0.03 0.33 0.19 96 1007.9
20260506081419 45 0 0.0 0.0 0.03 0.33 0.19 96 1008.0
20260506081219 45 0 0.0 0.0 0.03 0.33 0.19 96 1007.9
20260506081018 45 0 0.0 0.0 0.03 0.33 0.19 96 1007.9
20260506080818 45 0 0.0 0.0 0.02 0.32 0.18 95 1007.9
20260506080618 45 0 0.0 0.0 0.02 0.32 0.18 95 1007.8
20260506080417 45 0 0.0 0.0 0.02 0.32 0.18 95 1007.7
20260506080217 45 0 0.0 0.0 0.02 0.32 0.18 95 1007.7
20260506073413 45 0 0.0 0.0 0.03 0.30 0.16 95 1007.6
20260506073213 45 0 0.0 0.0 0.03 0.30 0.16 95 1007.5
20260506073012 45 0 0.0 0.0 0.04 0.30 0.16 95 1007.5
20260506072812 45 0 0.0 0.9 0.04 0.30 0.16 95 1007.5
20260506072612 45 0 0.0 1.7 0.04 0.30 0.16 95 1007.5
20260506072411 45 0 0.0 1.7 0.04 0.30 0.16 95 1007.5
20260506072211 45 0 0.0 1.7 0.04 0.30 0.16 95 1007.6
20260506072011 45 252 0.0 1.7 0.04 0.30 0.16 95 1007.5
20260506071811 45 252 0.0 1.7 0.05 0.30 0.16 95 1007.5
20260506071610 45 0 0.0 0.0 0.05 0.30 0.16 95 1007.6
20260506071410 45 0 0.0 0.0 0.05 0.30 0.16 95 1007.7
20260506071210 45 0 0.0 0.0 0.05 0.30 0.16 95 1007.7
20260506071009 45 0 0.0 0.0 0.05 0.30 0.16 95 1007.8
20260506070809 45 0 0.0 0.0 0.05 0.30 0.16 95 1007.8
20260506070609 45 0 0.0 0.9 0.05 0.30 0.16 95 1007.7
20260506070408 45 0 0.0 0.9 0.06 0.30 0.16 95 1007.7
20260506070208 45 0 0.0 1.7 0.06 0.30 0.16 95 1007.8
20260506062402 46 0 0.0 0.0 0.06 0.26 0.12 96 1007.8
20260506062202 46 0 0.0 0.0 0.06 0.26 0.12 96 1007.9
20260506062002 46 0 0.0 0.0 0.07 0.26 0.12 96 1007.9
20260506061802 46 0 0.0 0.9 0.06 0.25 0.11 96 1007.9
20260506061601 46 0 0.0 0.9 0.06 0.25 0.11 96 1007.9
20260506061401 46 0 0.0 0.9 0.06 0.25 0.11 97 1007.8
20260506061201 46 228 0.0 0.9 0.07 0.25 0.11 97 1007.6
20260506061000 46 228 0.0 0.9 0.07 0.25 0.11 97 1007.9
20260506060800 46 228 0.0 0.9 0.07 0.25 0.11 97 1007.9
20260506060600 46 228 0.0 0.9 0.07 0.25 0.11 97 1007.8
20260506060359 46 0 0.0 0.9 0.07 0.24 0.10 97 1007.8
20260506060159 46 0 0.0 1.7 0.07 0.24 0.10 97 1007.9
20260506051352 48 0 0.0 0.9 0.05 0.19 0.05 98 1008.4
20260506051152 48 228 0.0 0.9 0.04 0.18 0.04 98 1008.5
20260506050951 48 228 0.0 1.7 0.04 0.18 0.04 98 1008.5
20260506050751 48 0 0.0 1.7 0.04 0.18 0.04 98 1008.5
20260506050551 48 0 0.0 1.7 0.04 0.18 0.04 98 1008.5
20260506050350 48 228 0.0 1.7 0.03 0.17 0.03 98 1008.5
20260506050150 48 228 0.0 1.7 0.03 0.17 0.03 98 1008.5
20260506044948 48 232 0.9 2.6 0.02 0.16 0.02 98 1008.5
20260506044748 48 239 0.0 2.6 0.02 0.16 0.02 98 1008.6
20260506044548 48 239 0.9 1.7 0.01 0.15 0.01 98 1008.6
20260506044347 48 234 0.9 3.5 0.01 0.15 0.01 98 1008.6
20260506044147 48 234 0.0 4.3 0.01 0.15 0.01 98 1008.6
20260506043947 48 234 0.0 4.3 0.01 0.15 0.01 98 1008.5
20260506043746 48 232 0.9 4.3 0.01 0.15 0.01 98 1008.5
20260506043546 48 226 0.9 4.3 0.01 0.15 0.01 98 1008.6
20260506043346 48 222 0.9 3.5 0.01 0.15 0.01 98 1008.5
20260506043146 48 222 0.9 3.5 0.01 0.15 0.01 98 1008.6
20260506042945 48 221 0.9 3.5 0.00 0.14 0.00 97 1008.6
20260506042745 48 219 1.7 3.5 0.00 0.14 0.00 97 1008.6
20260506042545 48 220 0.9 3.5 0.00 0.14 0.00 97 1008.7
20260506042344 48 232 0.9 3.5 0.00 0.14 0.00 97 1008.7
20260506042144 48 241 0.0 1.7 0.00 0.14 0.00 97 1008.7
20260506041944 48 241 0.0 2.6 0.00 0.14 0.00 97 1008.6
20260506041743 48 241 0.0 2.6 0.00 0.14 0.00 97 1008.6
20260506041543 48 241 0.0 3.5 0.00 0.14 0.00 97 1008.6
20260506041343 48 241 0.0 3.5 0.00 0.14 0.00 97 1008.5
20260506041143 48 241 0.9 4.3 0.00 0.14 0.00 97 1008.5
20260506040942 48 237 0.9 4.3 0.00 0.14 0.00 97 1008.5
20260506040742 48 224 0.9 4.3 0.00 0.14 0.00 97 1008.6
20260506040542 48 226 0.9 4.3 0.00 0.14 0.00 97 1008.5
20260506040341 48 226 0.9 2.6 0.00 0.14 0.00 97 1008.5
20260506040141 48 226 0.9 2.6 0.00 0.14 0.00 97 1008.5
20260506035941 48 226 0.0 1.7 0.00 0.14 0.14 97 1008.5
20260506035740 48 227 0.0 1.7 0.00 0.14 0.14 97 1008.4
20260506035540 48 227 0.0 2.6 0.00 0.14 0.14 97 1008.5
20260506035340 48 227 0.0 2.6 0.00 0.14 0.14 97 1008.5
20260506035140 48 227 0.0 2.6 0.00 0.14 0.14 97 1008.5
20260506034939 48 227 0.0 2.6 0.00 0.14 0.14 97 1008.2
20260506034739 48 232 0.0 2.6 0.00 0.14 0.14 97 1008.2
20260506034539 48 244 0.0 2.6 0.00 0.14 0.14 97 1008.3
20260506034338 48 252 0.9 2.6 0.00 0.14 0.14 97 1008.4
20260506034138 48 250 0.9 2.6 0.00 0.14 0.14 97 1008.4
20260506033938 48 223 0.0 3.5 0.00 0.14 0.14 97 1008.3
20260506033737 48 217 0.9 3.5 0.00 0.14 0.14 97 1008.2
20260506033537 48 218 0.9 3.5 0.00 0.14 0.14 97 1008.2
20260506033337 48 218 0.9 3.5 0.01 0.14 0.14 97 1008.2
20260506033137 48 222 0.9 3.5 0.01 0.14 0.14 97 1008.3
20260506032936 48 239 0.0 1.7 0.01 0.14 0.14 97 1008.2
20260506032736 48 0 0.0 1.7 0.01 0.14 0.14 97 1008.2
20260506032536 48 239 0.0 1.7 0.01 0.14 0.14 97 1008.2
20260506032335 48 239 0.0 1.7 0.01 0.14 0.14 97 1008.2
20260506032135 48 0 0.0 2.6 0.01 0.14 0.14 97 1008.2
20260506031935 48 239 0.0 3.5 0.01 0.14 0.14 97 1008.1
20260506031734 48 239 0.0 3.5 0.01 0.14 0.14 97 1008.0